"Sample Date","Sample Time","Sample Value","Units","Flow Rate","Laser Status","Micron Size 0","Counts/Channel 0","Micron Size 1","Counts/Channel 1","Micron Size 2","Counts/Channel 2","Micron Size 3","Counts/Channel 3","Micron Size 4","Counts/Channel 4","Micron Size 5","Counts/Channel 5","Micron Size 6","Counts/Channel 6","Micron Size 7","Counts/Channel 7","Micron Size 8","Counts/Channel 8","Micron Size 9","Counts/Channel 9","Micron Size 10","Counts/Channel 10","Micron Size 11","Counts/Channel 11","Micron Size 12","Counts/Channel 12","Micron Size 13","Counts/Channel 13","Micron Size 14","Counts/Channel 14","Micron Size 15","Counts/Channel 15","Micron Size 16","Counts/Channel 16","Micron Size 17","Counts/Channel 17","Micron Size 18","Counts/Channel 18","Micron Size 19","Counts/Channel 19","Micron Size 20","Counts/Channel 20","Micron Size 21","Counts/Channel 21","Micron Size 22","Counts/Channel 22","Micron Size 23","Counts/Channel 23","Micron Size 24","Counts/Channel 24","Micron Size 25","Counts/Channel 25","Micron Size 26","Counts/Channel 26","Micron Size 27","Counts/Channel 27","Micron Size 28","Counts/Channel 28","Micron Size 29","Counts/Channel 29","Micron Size 30","Counts/Channel 30","Micron Size 31","Counts/Channel 31"
"03/01/08","09:00:05",124388.000,"cc",28326.420,1,0.100,103982.000,0.200,16203.000,0.300,2161.000,0.500,1512.000,1.000,530.000,5.000,0
"03/01/08","09:00:11",153067.000,"cc",28366.898,1,0.100,129017.000,0.200,20201.000,0.300,2221.000,0.500,1186.000,1.000,442.000,5.000,0
"03/01/08","09:00:17",142908.000,"cc",28325.385,1,0.100,120724.000,0.200,18576.000,0.300,1982.000,0.500,1193.000,1.000,433.000,5.000,0
"03/01/08","09:00:23",163893.000,"cc",28244.381,1,0.100,136399.000,0.200,21969.000,0.300,2941.000,0.500,1867.000,1.000,717.000,5.000,0
"03/01/08","09:00:29",155723.000,"cc",28327.982,1,0.100,130315.000,0.200,20694.000,0.300,2579.000,0.500,1560.000,1.000,575.000,5.000,0
"03/01/08","09:00:35",127987.000,"cc",28357.793,1,0.100,107137.000,0.200,16288.000,0.300,2394.000,0.500,1609.000,1.000,559.000,5.000,0
"03/01/08","09:00:41",109488.000,"cc",28292.174,1,0.100,91973.000,0.200,13627.000,0.300,1944.000,0.500,1419.000,1.000,525.000,5.000,0
"03/01/08","09:00:47",116122.000,"cc",28306.451,1,0.100,97768.000,0.200,14842.000,0.300,1832.000,0.500,1198.000,1.000,482.000,5.000,0
"03/01/08","09:00:53",129865.000,"cc",28262.037,1,0.100,109272.000,0.200,16570.000,0.300,2103.000,0.500,1411.000,1.000,509.000,5.000,0
"03/01/08","09:00:59",85240.000,"cc",28358.184,1,0.100,70904.000,0.200,10360.000,0.300,1977.000,0.500,1474.000,1.000,525.000,5.000,0
"03/01/08","09:01:05",105183.000,"cc",28332.748,1,0.100,87529.000,0.200,13405.000,0.300,2101.000,0.500,1583.000,1.000,565.000,5.000,0
"03/01/08","09:01:11",127603.000,"cc",28287.344,1,0.100,107196.000,0.200,16627.000,0.300,2041.000,0.500,1266.000,1.000,473.000,5.000,0
"03/01/08","09:01:17",77558.000,"cc",28336.139,1,0.100,65079.000,0.200,9259.000,0.300,1546.000,0.500,1224.000,1.000,450.000,5.000,0
"03/01/08","09:01:23",113624.000,"cc",28329.234,1,0.100,93685.000,0.200,14763.000,0.300,2610.000,0.500,1868.000,1.000,698.000,5.000,0
"03/01/08","09:01:29",117604.000,"cc",28312.076,1,0.100,97212.000,0.200,15417.000,0.300,2545.000,0.500,1785.000,1.000,645.000,5.000,0
"03/01/08","09:01:35",74612.000,"cc",28298.484,1,0.100,61428.000,0.200,9031.000,0.300,2045.000,0.500,1578.000,1.000,530.000,5.000,0
"03/01/08","09:01:41",82381.000,"cc",28309.398,1,0.100,67057.000,0.200,10317.000,0.300,2354.000,0.500,1916.000,1.000,737.000,5.000,0
"03/01/08","09:01:47",181345.000,"cc",28353.053,1,0.100,152225.000,0.200,24809.000,0.300,2478.000,0.500,1330.000,1.000,503.000,5.000,0
"03/01/08","09:01:53",162701.000,"cc",28315.068,1,0.100,136487.000,0.200,22236.000,0.300,2284.000,0.500,1243.000,1.000,451.000,5.000,0
"03/01/08","09:01:59",102644.000,"cc",28279.760,1,0.100,86164.000,0.200,12793.000,0.300,1868.000,0.500,1347.000,1.000,472.000,5.000,0
"03/01/08","09:02:05",98052.000,"cc",28334.305,1,0.100,81142.000,0.200,12343.000,0.300,2199.000,0.500,1748.000,1.000,620.000,5.000,0
"03/01/08","09:02:11",99296.000,"cc",28317.813,1,0.100,82523.000,0.200,12601.000,0.300,2119.000,0.500,1521.000,1.000,532.000,5.000,0
"03/01/08","09:02:17",114755.000,"cc",28345.232,1,0.100,95160.000,0.200,14710.000,0.300,2480.000,0.500,1765.000,1.000,640.000,5.000,0
"03/01/08","09:02:23",76709.000,"cc",28312.779,1,0.100,63743.000,0.200,9197.000,0.300,1793.000,0.500,1454.000,1.000,522.000,5.000,0
"03/01/08","09:02:29",89799.000,"cc",28280.772,1,0.100,74907.000,0.200,11156.000,0.300,1829.000,0.500,1419.000,1.000,488.000,5.000,0
"03/01/08","09:02:35",123803.000,"cc",28335.475,1,0.100,103718.000,0.200,16027.000,0.300,2133.000,0.500,1413.000,1.000,512.000,5.000,0
"03/01/08","09:02:41",140306.000,"cc",28347.537,1,0.100,117682.000,0.200,18226.000,0.300,2351.000,0.500,1499.000,1.000,548.000,5.000,0
"03/01/08","09:02:47",129947.000,"cc",28343.992,1,0.100,108963.000,0.200,16884.000,0.300,2165.000,0.500,1409.000,1.000,526.000,5.000,0
"03/01/08","09:02:53",183956.000,"cc",28264.197,1,0.100,154545.000,0.200,25189.000,0.300,2475.000,0.500,1293.000,1.000,454.000,5.000,0
"03/01/08","09:02:59",160921.000,"cc",28334.740,1,0.100,135293.000,0.200,21709.000,0.300,2180.000,0.500,1306.000,1.000,433.000,5.000,0
"03/01/08","09:03:05",160939.000,"cc",28311.758,1,0.100,135260.000,0.200,21417.000,0.300,2281.000,0.500,1426.000,1.000,555.000,5.000,0
"03/01/08","09:03:11",119563.000,"cc",28326.932,1,0.100,100759.000,0.200,15083.000,0.300,1982.000,0.500,1247.000,1.000,492.000,5.000,0
"03/01/08","09:03:17",95823.000,"cc",28329.500,1,0.100,80309.000,0.200,11801.000,0.300,1856.000,0.500,1318.000,1.000,539.000,5.000,0
"03/01/08","09:03:23",109248.000,"cc",28318.096,1,0.100,92046.000,0.200,13633.000,0.300,1878.000,0.500,1242.000,1.000,449.000,5.000,0
"03/01/08","09:03:29",87020.000,"cc",28248.184,1,0.100,72288.000,0.200,10738.000,0.300,1958.000,0.500,1485.000,1.000,551.000,5.000,0
"03/01/08","09:03:35",73891.000,"cc",28300.844,1,0.100,61200.000,0.200,8824.000,0.300,1852.000,0.500,1463.000,1.000,552.000,5.000,0
"03/01/08","09:03:41",121456.000,"cc",28361.572,1,0.100,101885.000,0.200,15586.000,0.300,2065.000,0.500,1406.000,1.000,514.000,5.000,0
"03/01/08","09:03:47",124600.000,"cc",28343.006,1,0.100,105231.000,0.200,15754.000,0.300,1967.000,0.500,1241.000,1.000,407.000,5.000,0
"03/01/08","09:03:53",153666.000,"cc",28283.201,1,0.100,129914.000,0.200,20165.000,0.300,2018.000,0.500,1180.000,1.000,389.000,5.000,0
"03/01/08","09:03:59",143997.000,"cc",28320.029,1,0.100,121867.000,0.200,18397.000,0.300,2035.000,0.500,1234.000,1.000,464.000,5.000,0
"03/01/08","09:04:05",149868.000,"cc",28270.613,1,0.100,125992.000,0.200,19787.000,0.300,2238.000,0.500,1401.000,1.000,450.000,5.000,0
"03/01/08","09:04:11",133876.000,"cc",28307.998,1,0.100,112553.000,0.200,17390.000,0.300,2123.000,0.500,1331.000,1.000,479.000,5.000,0
"03/01/08","09:04:17",135552.000,"cc",28333.227,1,0.100,112812.000,0.200,17925.000,0.300,2553.000,0.500,1707.000,1.000,555.000,5.000,0
"03/01/08","09:04:23",101326.000,"cc",28274.295,1,0.100,83745.000,0.200,12744.000,0.300,2346.000,0.500,1832.000,1.000,659.000,5.000,0
"03/01/08","09:04:29",104425.000,"cc",28348.590,1,0.100,88218.000,0.200,12749.000,0.300,1743.000,0.500,1263.000,1.000,452.000,5.000,0
"03/01/08","09:04:35",110723.000,"cc",28364.469,1,0.100,94431.000,0.200,13343.000,0.300,1545.000,0.500,1047.000,1.000,357.000,5.000,0
"03/01/08","09:04:41",120363.000,"cc",28328.084,1,0.100,102708.000,0.200,14777.000,0.300,1552.000,0.500,953.000,1.000,373.000,5.000,0
"03/01/08","09:04:47",119707.000,"cc",28307.918,1,0.100,102110.000,0.200,14579.000,0.300,1590.000,0.500,1051.000,1.000,377.000,5.000,0
"03/01/08","09:04:53",163787.000,"cc",28365.459,1,0.100,138245.000,0.200,21574.000,0.300,2184.000,0.500,1319.000,1.000,465.000,5.000,0
"03/01/08","09:04:59",93104.000,"cc",28294.164,1,0.100,78143.000,0.200,11308.000,0.300,1835.000,0.500,1325.000,1.000,493.000,5.000,0
"03/01/08","09:05:05",91149.000,"cc",28286.279,1,0.100,76979.000,0.200,10986.000,0.300,1612.000,0.500,1164.000,1.000,408.000,5.000,0
"03/01/08","09:05:11",93331.000,"cc",28321.520,1,0.100,78621.000,0.200,11354.000,0.300,1736.000,0.500,1184.000,1.000,436.000,5.000,0
"03/01/08","09:05:17",119483.000,"cc",28275.623,1,0.100,100164.000,0.200,15098.000,0.300,2208.000,0.500,1481.000,1.000,532.000,5.000,0
"03/01/08","09:05:23",168184.000,"cc",28386.992,1,0.100,141391.000,0.200,22426.000,0.300,2381.000,0.500,1461.000,1.000,525.000,5.000,0
"03/01/08","09:05:29",187587.000,"cc",28364.350,1,0.100,157820.000,0.200,25580.000,0.300,2478.000,0.500,1258.000,1.000,451.000,5.000,0
"03/01/08","09:05:35",162571.000,"cc",28278.258,1,0.100,137077.000,0.200,21625.000,0.300,2277.000,0.500,1169.000,1.000,423.000,5.000,0
"03/01/08","09:05:41",193106.000,"cc",28318.014,1,0.100,161470.000,0.200,27083.000,0.300,2649.000,0.500,1422.000,1.000,482.000,5.000,0
"03/01/08","09:05:47",128874.000,"cc",28298.793,1,0.100,106840.000,0.200,16909.000,0.300,2610.000,0.500,1836.000,1.000,679.000,5.000,0
"03/01/08","09:05:53",103933.000,"cc",28369.459,1,0.100,87523.000,0.200,12954.000,0.300,1763.000,0.500,1267.000,1.000,426.000,5.000,0
"03/01/08","09:05:59",132332.000,"cc",28293.854,1,0.100,111443.000,0.200,17024.000,0.300,2041.000,0.500,1372.000,1.000,452.000,5.000,0
"03/01/08","09:06:05",70902.000,"cc",28325.801,1,0.100,60034.000,0.200,8213.000,0.300,1286.000,0.500,1022.000,1.000,347.000,5.000,0
"03/01/08","09:06:11",84668.000,"cc",28333.672,1,0.100,71542.000,0.200,10089.000,0.300,1467.000,0.500,1167.000,1.000,403.000,5.000,0
"03/01/08","09:06:17",142622.000,"cc",28293.035,1,0.100,119991.000,0.200,18394.000,0.300,2319.000,0.500,1412.000,1.000,506.000,5.000,0
"03/01/08","09:06:23",124627.000,"cc",28281.190,1,0.100,104929.000,0.200,15875.000,0.300,2037.000,0.500,1345.000,1.000,441.000,5.000,0
"03/01/08","09:06:29",117597.000,"cc",28295.307,1,0.100,99125.000,0.200,14603.000,0.300,1925.000,0.500,1419.000,1.000,525.000,5.000,0
"03/01/08","09:06:35",208637.000,"cc",28295.756,1,0.100,174344.000,0.200,29816.000,0.300,2704.000,0.500,1292.000,1.000,481.000,5.000,0
"03/01/08","09:06:41",206749.000,"cc",28390.701,1,0.100,173303.000,0.200,28490.000,0.300,2911.000,0.500,1503.000,1.000,542.000,5.000,0
"03/01/08","09:06:47",231255.000,"cc",28344.305,1,0.100,193175.000,0.200,33086.000,0.300,3114.000,0.500,1383.000,1.000,497.000,5.000,0
"03/01/08","09:06:53",156629.000,"cc",28220.182,1,0.100,131484.000,0.200,20962.000,0.300,2353.000,0.500,1326.000,1.000,504.000,5.000,0
"03/01/08","09:06:59",121763.000,"cc",28316.617,1,0.100,103272.000,0.200,15202.000,0.300,1811.000,0.500,1130.000,1.000,348.000,5.000,0
"03/01/08","09:07:05",131051.000,"cc",28405.537,1,0.100,110885.000,0.200,16741.000,0.300,1916.000,0.500,1108.000,1.000,401.000,5.000,0
"03/01/08","09:07:11",102130.000,"cc",28251.449,1,0.100,87063.000,0.200,12092.000,0.300,1560.000,0.500,1016.000,1.000,399.000,5.000,0
"03/01/08","09:07:17",120001.000,"cc",28320.346,1,0.100,100262.000,0.200,15351.000,0.300,2216.000,0.500,1600.000,1.000,572.000,5.000,0
"03/01/08","09:07:23",93125.000,"cc",28290.619,1,0.100,78189.000,0.200,11314.000,0.300,1805.000,0.500,1302.000,1.000,515.000,5.000,0
"03/01/08","09:07:29",79742.000,"cc",28315.768,1,0.100,65260.000,0.200,9844.000,0.300,2179.000,0.500,1844.000,1.000,615.000,5.000,0
"03/01/08","09:07:35",71050.000,"cc",28339.565,1,0.100,58934.000,0.200,8508.000,0.300,1686.000,0.500,1427.000,1.000,495.000,5.000,0
"03/01/08","09:07:41",77691.000,"cc",28390.424,1,0.100,65778.000,0.200,9036.000,0.300,1429.000,0.500,1073.000,1.000,375.000,5.000,0
"03/01/08","09:07:47",112954.000,"cc",28299.408,1,0.100,95222.000,0.200,14176.000,0.300,1895.000,0.500,1216.000,1.000,445.000,5.000,0
"03/01/08","09:07:53",109050.000,"cc",28305.838,1,0.100,92030.000,0.200,13427.000,0.300,1870.000,0.500,1283.000,1.000,440.000,5.000,0
"03/01/08","09:07:59",106570.000,"cc",28337.084,1,0.100,89392.000,0.200,13047.000,0.300,2064.000,0.500,1524.000,1.000,543.000,5.000,0
"03/01/08","09:08:05",156359.000,"cc",28253.279,1,0.100,131510.000,0.200,20585.000,0.300,2314.000,0.500,1401.000,1.000,549.000,5.000,0
"03/01/08","09:08:11",185937.000,"cc",28262.057,1,0.100,155207.000,0.200,25180.000,0.300,3070.000,0.500,1802.000,1.000,678.000,5.000,0
"03/01/08","09:08:17",155212.000,"cc",28338.336,1,0.100,130392.000,0.200,20376.000,0.300,2445.000,0.500,1474.000,1.000,525.000,5.000,0
"03/01/08","09:08:23",123203.000,"cc",28388.523,1,0.100,105006.000,0.200,15161.000,0.300,1708.000,0.500,983.000,1.000,345.000,5.000,0
"03/01/08","09:08:29",134017.000,"cc",28329.385,1,0.100,114087.000,0.200,16743.000,0.300,1797.000,0.500,1015.000,1.000,375.000,5.000,0
"03/01/08","09:08:35",147429.000,"cc",28309.652,1,0.100,124394.000,0.200,19178.000,0.300,2167.000,0.500,1263.000,1.000,427.000,5.000,0
"03/01/08","09:08:41",228711.000,"cc",28283.045,1,0.100,192137.000,0.200,32207.000,0.300,2727.000,0.500,1197.000,1.000,443.000,5.000,0
"03/01/08","09:08:47",257160.000,"cc",28326.713,1,0.100,214706.000,0.200,37711.000,0.300,3106.000,0.500,1233.000,1.000,404.000,5.000,0
"03/01/08","09:08:53",242709.000,"cc",28348.033,1,0.100,202710.000,0.200,35488.000,0.300,2940.000,0.500,1168.000,1.000,403.000,5.000,0
"03/01/08","09:08:59",282924.000,"cc",28309.213,1,0.100,235114.000,0.200,42781.000,0.300,3431.000,0.500,1183.000,1.000,415.000,5.000,0
"03/01/08","09:09:05",189728.000,"cc",28349.891,1,0.100,158680.000,0.200,26101.000,0.300,2816.000,0.500,1558.000,1.000,573.000,5.000,0
"03/01/08","09:09:11",168995.000,"cc",28342.791,1,0.100,141430.000,0.200,22658.000,0.300,2685.000,0.500,1631.000,1.000,591.000,5.000,0
"03/01/08","09:09:17",97451.000,"cc",28264.002,1,0.100,82504.000,0.200,11881.000,0.300,1561.000,0.500,1090.000,1.000,415.000,5.000,0
"03/01/08","09:09:23",162909.000,"cc",28343.373,1,0.100,137576.000,0.200,21519.000,0.300,2141.000,0.500,1225.000,1.000,448.000,5.000,0
"03/01/08","09:09:29",160015.000,"cc",28270.020,1,0.100,135431.000,0.200,20861.000,0.300,2159.000,0.500,1147.000,1.000,417.000,5.000,0
"03/01/08","09:09:35",164364.000,"cc",28266.971,1,0.100,139453.000,0.200,21242.000,0.300,2104.000,0.500,1140.000,1.000,425.000,5.000,0
"03/01/08","09:09:41",229622.000,"cc",28405.486,1,0.100,191879.000,0.200,32524.000,0.300,3098.000,0.500,1578.000,1.000,543.000,5.000,0
"03/01/08","09:09:47",178210.000,"cc",28272.412,1,0.100,151369.000,0.200,23375.000,0.300,2051.000,0.500,1057.000,1.000,358.000,5.000,0
"03/01/08","09:09:53",173321.000,"cc",28326.348,1,0.100,145935.000,0.200,23079.000,0.300,2382.000,0.500,1434.000,1.000,491.000,5.000,0
"03/01/08","09:09:59",170815.000,"cc",28312.822,1,0.100,143838.000,0.200,22650.000,0.300,2425.000,0.500,1413.000,1.000,489.000,5.000,0
"03/01/08","09:10:05",142927.000,"cc",28344.703,1,0.100,121210.000,0.200,18027.000,0.300,2062.000,0.500,1185.000,1.000,443.000,5.000,0
"03/01/08","09:10:11",141775.000,"cc",28323.231,1,0.100,120361.000,0.200,17984.000,0.300,1938.000,0.500,1090.000,1.000,402.000,5.000,0
"03/01/08","09:10:17",158058.000,"cc",28282.000,1,0.100,132876.000,0.200,20727.000,0.300,2401.000,0.500,1523.000,1.000,531.000,5.000,0
"03/01/08","09:10:23",129039.000,"cc",28310.262,1,0.100,108380.000,0.200,16181.000,0.300,2333.000,0.500,1559.000,1.000,585.000,5.000,1.000
"03/01/08","09:10:29",122379.000,"cc",28313.676,1,0.100,103607.000,0.200,15521.000,0.300,1726.000,0.500,1139.000,1.000,386.000,5.000,0
"03/01/08","09:10:35",200521.000,"cc",28315.104,1,0.100,168537.000,0.200,28060.000,0.300,2460.000,0.500,1072.000,1.000,392.000,5.000,0
"03/01/08","09:10:41",200262.000,"cc",28370.215,1,0.100,167650.000,0.200,28493.000,0.300,2557.000,0.500,1147.000,1.000,415.000,5.000,0
"03/01/08","09:10:47",132027.000,"cc",28309.565,1,0.100,111657.000,0.200,16860.000,0.300,1980.000,0.500,1118.000,1.000,412.000,5.000,0
"03/01/08","09:10:53",234734.000,"cc",28355.770,1,0.100,196299.000,0.200,33998.000,0.300,2822.000,0.500,1192.000,1.000,423.000,5.000,0
"03/01/08","09:10:59",351399.000,"cc",28260.721,1,0.100,287368.000,0.200,57676.000,0.300,4444.000,0.500,1453.000,1.000,458.000,5.000,0
"03/01/08","09:11:05",328023.000,"cc",28352.076,1,0.100,268357.000,0.200,53836.000,0.300,3996.000,0.500,1373.000,1.000,461.000,5.000,0
"03/01/08","09:11:11",244655.000,"cc",28263.307,1,0.100,203412.000,0.200,35556.000,0.300,3374.000,0.500,1751.000,1.000,562.000,5.000,0
"03/01/08","09:11:17",211410.000,"cc",28290.525,1,0.100,177906.000,0.200,28710.000,0.300,2825.000,0.500,1416.000,1.000,553.000,5.000,0
"03/01/08","09:11:23",202159.000,"cc",28325.967,1,0.100,170382.000,0.200,27354.000,0.300,2647.000,0.500,1320.000,1.000,456.000,5.000,0
"03/01/08","09:11:29",154117.000,"cc",28362.397,1,0.100,130000.000,0.200,20274.000,0.300,2138.000,0.500,1255.000,1.000,450.000,5.000,0
"03/01/08","09:11:35",178785.000,"cc",28305.342,1,0.100,150960.000,0.200,23677.000,0.300,2348.000,0.500,1313.000,1.000,487.000,5.000,0
"03/01/08","09:11:41",116673.000,"cc",28348.691,1,0.100,98951.000,0.200,14375.000,0.300,1791.000,0.500,1165.000,1.000,391.000,5.000,0
"03/01/08","09:11:47",155286.000,"cc",28314.568,1,0.100,131884.000,0.200,19826.000,0.300,2036.000,0.500,1122.000,1.000,418.000,5.000,0
"03/01/08","09:11:53",159062.000,"cc",28257.211,1,0.100,134641.000,0.200,20519.000,0.300,2179.000,0.500,1247.000,1.000,476.000,5.000,0
"03/01/08","09:11:59",215134.000,"cc",28362.602,1,0.100,179950.000,0.200,29872.000,0.300,3111.000,0.500,1637.000,1.000,564.000,5.000,0
"03/01/08","09:12:05",213060.000,"cc",28367.188,1,0.100,178599.000,0.200,29399.000,0.300,3030.000,0.500,1492.000,1.000,540.000,5.000,0
"03/01/08","09:12:11",178303.000,"cc",28326.674,1,0.100,149844.000,0.200,23883.000,0.300,2582.000,0.500,1419.000,1.000,575.000,5.000,0
"03/01/08","09:12:17",232316.000,"cc",28269.752,1,0.100,192878.000,0.200,33784.000,0.300,3390.000,0.500,1692.000,1.000,572.000,5.000,0
"03/01/08","09:12:23",152373.000,"cc",28270.840,1,0.100,128711.000,0.200,19703.000,0.300,2202.000,0.500,1338.000,1.000,419.000,5.000,0
"03/01/08","09:12:29",164690.000,"cc",28360.846,1,0.100,138653.000,0.200,21458.000,0.300,2545.000,0.500,1513.000,1.000,521.000,5.000,0
"03/01/08","09:12:35",251583.000,"cc",28343.463,1,0.100,208956.000,0.200,36799.000,0.300,3567.000,0.500,1677.000,1.000,584.000,5.000,0
"03/01/08","09:12:41",250839.000,"cc",28349.238,1,0.100,207986.000,0.200,36755.000,0.300,3674.000,0.500,1815.000,1.000,609.000,5.000,0
"03/01/08","09:12:47",177828.000,"cc",28278.897,1,0.100,148199.000,0.200,24071.000,0.300,2981.000,0.500,1879.000,1.000,698.000,5.000,0
"03/01/08","09:12:53",168168.000,"cc",28270.059,1,0.100,141727.000,0.200,22322.000,0.300,2275.000,0.500,1321.000,1.000,523.000,5.000,0
"03/01/08","09:12:59",138422.000,"cc",28296.371,1,0.100,117645.000,0.200,17659.000,0.300,1823.000,0.500,983.000,1.000,312.000,5.000,0
"03/01/08","09:13:05",248447.000,"cc",28358.969,1,0.100,207704.000,0.200,36288.000,0.300,2995.000,0.500,1074.000,1.000,386.000,5.000,0
"03/01/08","09:13:11",219811.000,"cc",28325.926,1,0.100,184853.000,0.200,30898.000,0.300,2597.000,0.500,1066.000,1.000,397.000,5.000,0
"03/01/08","09:13:17",272797.000,"cc",28327.402,1,0.100,226178.000,0.200,41715.000,0.300,3314.000,0.500,1182.000,1.000,408.000,5.000,0
"03/01/08","09:13:23",298622.000,"cc",28288.076,1,0.100,245586.000,0.200,47238.000,0.300,3858.000,0.500,1467.000,1.000,473.000,5.000,0
"03/01/08","09:13:29",188715.000,"cc",28354.916,1,0.100,159122.000,0.200,25563.000,0.300,2417.000,0.500,1185.000,1.000,428.000,5.000,0
"03/01/08","09:13:35",198560.000,"cc",28319.772,1,0.100,166934.000,0.200,27232.000,0.300,2603.000,0.500,1328.000,1.000,463.000,5.000,0
"03/01/08","09:13:41",248811.000,"cc",28251.264,1,0.100,207027.000,0.200,36292.000,0.300,3421.000,0.500,1511.000,1.000,560.000,5.000,0
"03/01/08","09:13:47",255829.000,"cc",28345.076,1,0.100,211533.000,0.200,38186.000,0.300,3796.000,0.500,1667.000,1.000,647.000,5.000,0
"03/01/08","09:13:53",267496.000,"cc",28315.242,1,0.100,222404.000,0.200,39260.000,0.300,3575.000,0.500,1715.000,1.000,542.000,5.000,0
"03/01/08","09:13:59",290664.000,"cc",28302.731,1,0.100,240162.000,0.200,44687.000,0.300,3869.000,0.500,1434.000,1.000,511.000,5.000,1.000
"03/01/08","09:14:05",307835.000,"cc",28350.856,1,0.100,253939.000,0.200,48045.000,0.300,3983.000,0.500,1383.000,1.000,485.000,5.000,0
"03/01/08","09:14:11",239829.000,"cc",28268.289,1,0.100,200903.000,0.200,34324.000,0.300,2963.000,0.500,1189.000,1.000,450.000,5.000,0
"03/01/08","09:14:17",242720.000,"cc",28321.902,1,0.100,202602.000,0.200,34895.000,0.300,3337.000,0.500,1427.000,1.000,459.000,5.000,0
"03/01/08","09:14:23",112921.000,"cc",28276.100,1,0.100,95144.000,0.200,13877.000,0.300,2026.000,0.500,1375.000,1.000,499.000,5.000,0
"03/01/08","09:14:29",167532.000,"cc",28338.873,1,0.100,140826.000,0.200,22062.000,0.300,2603.000,0.500,1455.000,1.000,586.000,5.000,0
"03/01/08","09:14:35",147817.000,"cc",28411.971,1,0.100,124643.000,0.200,18847.000,0.300,2347.000,0.500,1444.000,1.000,536.000,5.000,0
"03/01/08","09:14:41",118996.000,"cc",28284.236,1,0.100,101348.000,0.200,14455.000,0.300,1708.000,0.500,1109.000,1.000,376.000,5.000,0
"03/01/08","09:14:47",145304.000,"cc",28292.641,1,0.100,123126.000,0.200,18548.000,0.300,2034.000,0.500,1153.000,1.000,443.000,5.000,0
"03/01/08","09:14:53",184910.000,"cc",28304.678,1,0.100,156020.000,0.200,24397.000,0.300,2662.000,0.500,1364.000,1.000,467.000,5.000,0
"03/01/08","09:14:59",141792.000,"cc",28317.158,1,0.100,119681.000,0.200,18170.000,0.300,2127.000,0.500,1339.000,1.000,475.000,5.000,0
"03/01/08","09:15:05",158412.000,"cc",28307.520,1,0.100,134033.000,0.200,20611.000,0.300,2134.000,0.500,1221.000,1.000,413.000,5.000,0
"03/01/08","09:15:11",171123.000,"cc",28341.324,1,0.100,144020.000,0.200,22908.000,0.300,2419.000,0.500,1314.000,1.000,462.000,5.000,0
"03/01/08","09:15:17",135081.000,"cc",28333.680,1,0.100,113950.000,0.200,17287.000,0.300,2044.000,0.500,1349.000,1.000,451.000,5.000,0
"03/01/08","09:15:23",141636.000,"cc",28277.147,1,0.100,119289.000,0.200,18271.000,0.300,2244.000,0.500,1377.000,1.000,455.000,5.000,0
"03/01/08","09:15:29",206081.000,"cc",28279.986,1,0.100,172022.000,0.200,28978.000,0.300,2937.000,0.500,1585.000,1.000,559.000,5.000,0
"03/01/08","09:15:35",143086.000,"cc",28303.414,1,0.100,120677.000,0.200,18201.000,0.300,2230.000,0.500,1440.000,1.000,538.000,5.000,0
"03/01/08","09:15:41",184651.000,"cc",28364.291,1,0.100,155418.000,0.200,24715.000,0.300,2561.000,0.500,1411.000,1.000,546.000,5.000,0
"03/01/08","09:15:47",155934.000,"cc",28320.316,1,0.100,131722.000,0.200,20248.000,0.300,2240.000,0.500,1266.000,1.000,458.000,5.000,0
"03/01/08","09:15:53",190476.000,"cc",28338.617,1,0.100,160697.000,0.200,25833.000,0.300,2389.000,0.500,1132.000,1.000,425.000,5.000,0
"03/01/08","09:15:59",139316.000,"cc",28302.799,1,0.100,118653.000,0.200,17619.000,0.300,1735.000,0.500,950.000,1.000,359.000,5.000,0
"03/01/08","09:16:05",187096.000,"cc",28270.293,1,0.100,157892.000,0.200,24961.000,0.300,2470.000,0.500,1285.000,1.000,488.000,5.000,0
"03/01/08","09:16:11",222665.000,"cc",28316.953,1,0.100,187453.000,0.200,30546.000,0.300,2776.000,0.500,1404.000,1.000,486.000,5.000,0
"03/01/08","09:16:17",287268.000,"cc",28327.275,1,0.100,238996.000,0.200,43139.000,0.300,3377.000,0.500,1307.000,1.000,449.000,5.000,0
"03/01/08","09:16:23",258426.000,"cc",28317.695,1,0.100,214747.000,0.200,38622.000,0.300,3224.000,0.500,1361.000,1.000,472.000,5.000,0
"03/01/08","09:16:29",249760.000,"cc",28304.141,1,0.100,209356.000,0.200,36013.000,0.300,2748.000,0.500,1209.000,1.000,434.000,5.000,0
"03/01/08","09:16:35",174324.000,"cc",28290.869,1,0.100,148110.000,0.200,22816.000,0.300,2057.000,0.500,963.000,1.000,378.000,5.000,0
"03/01/08","09:16:41",164717.000,"cc",28327.682,1,0.100,140130.000,0.200,21429.000,0.300,1897.000,0.500,933.000,1.000,328.000,5.000,0